Zurück zum Katalog

FENGYUN 1C DEB

AktivSSO
NORAD 30718·DEBRIS·🇨🇳 China

Gestartet May 10, 1999 von Taiyuan Satellite Launch Center

Loading…

Nächste Überflüge (nächste 24 Stunden)

TLE

AktuellSource: Space-Track

Epoche: Sep 14, 2026, 12:26 UTC

1 30718U 99025ASC 26257.51844961  .00001852  00000-0  78302-3 0  9993
2 30718  98.8818 346.3766 0055470  81.7334 279.0131 14.25945339  6683

Verfolge FENGYUN 1C DEB in Echtzeit mit AllMySat

Download on the App Store